Metropolis, IL

12:53 AM CDT on June 26, 2017 (GMT -0500)
Metropolis

Weather History for KM30 - January, 2013

Change the Weather History Date:

Monday, January 28, 2013

  Actual Average (KPAH) Record (KPAH)
Temperature  
Mean Temperature 58 °F -  
Max Temperature 63 °F 43 °F 71 °F (1975)
Min Temperature 52 °F 24 °F -4 °F (1963)
Degree Days  
Heating Degree Days 8    
Growing Degree Days 8 (Base 50)    
Moisture  
Dew Point 55 °F    
Average Humidity 88    
Maximum Humidity 100    
Minimum Humidity 70    
Precipitation  
Precipitation 0.00 in - - ()
Sea Level Pressure  
Sea Level Pressure 30.06 in    
Wind  
Wind Speed 10 mph (South)    
Max Wind Speed 17 mph    
Max Gust Speed 23 mph    
Visibility 8 miles    
Events Rain    
Averages and records for this station are not official NWS values.
T = Trace of Precipitation, MM = Missing Value Source: NWS Daily Summary

Daily Weather History Graph

Daily Weather History Graph

Search for Another Location

Airport or City:

Trip Planner

Search our weather history database for the weather conditions in past years. The results will help you decide how hot, cold, wet, or windy it might be!

Date:

Astronomy

Jan. 28, 2013 Rise Set
Actual Time 7:00 AM CST 5:15 PM CST
Civil Twilight 6:33 AM CST 5:43 PM CST
Nautical Twilight 6:01 AM CST 6:14 PM CST
Astronomical Twilight 5:31 AM CST 6:45 PM CST
Moon 7:06 PM CST (1/28) 7:29 AM CST (1/28)
Length of Visible Light 11h 10m
Length of Day
10h 14m
Full, 98% of the Moon is Illuminated
Jan 28
Full
Feb 3
Last Quarter
Feb 10
New
Feb 17
First Quarter
Feb 25
Full

Hourly Weather History & Observations

Time (CST) Temp. Dew Point Humidity Pressure Visibility Wind Dir Wind Speed Gust Speed Precip Events Conditions
12:15 AM 52.2 °F 45.5 °F 78% 30.09 in 10.0 mi South 8.1 mph - N/A   Overcast
12:35 AM 52.3 °F 45.5 °F 78% 30.08 in 10.0 mi SSE 6.9 mph - N/A   Overcast
12:55 AM 53.1 °F 45.7 °F 76% 30.09 in 10.0 mi South 8.1 mph - N/A   Overcast
1:15 AM 53.6 °F 46.2 °F 76% 30.08 in 10.0 mi South 9.2 mph 17.3 mph N/A   Overcast
1:35 AM 54.5 °F 46.6 °F 75% 30.09 in 10.0 mi SSE 9.2 mph - N/A   Overcast
1:55 AM 54.9 °F 47.3 °F 76% 30.08 in 10.0 mi South 6.9 mph - N/A   Overcast
2:15 AM 56.1 °F 47.7 °F 73% 30.08 in 10.0 mi South 10.4 mph 19.6 mph N/A   Overcast
2:35 AM 56.8 °F 48.2 °F 73% 30.08 in 10.0 mi South 15.0 mph 23.0 mph N/A   Overcast
3:15 AM 56.8 °F 47.5 °F 71% 30.08 in 10.0 mi South 12.7 mph 18.4 mph N/A   Overcast
3:35 AM 56.3 °F 47.3 °F 72% 30.08 in 10.0 mi South 10.4 mph 17.3 mph N/A   Mostly Cloudy
3:55 AM 56.7 °F 47.5 °F 71% 30.08 in 10.0 mi South 9.2 mph - N/A   Mostly Cloudy
4:15 AM 56.8 °F 47.7 °F 71% 30.08 in 10.0 mi South 10.4 mph 19.6 mph N/A   Overcast
4:35 AM 57.2 °F 47.7 °F 70% 30.07 in 10.0 mi South 10.4 mph 17.3 mph N/A   Overcast
4:55 AM 57.4 °F 48.0 °F 71% 30.07 in 10.0 mi South 11.5 mph 18.4 mph N/A   Overcast
5:15 AM 57.6 °F 48.2 °F 71% 30.07 in 10.0 mi South 12.7 mph 20.7 mph N/A   Overcast
5:35 AM 56.3 °F 49.8 °F 79% 30.06 in 7.0 mi South 11.5 mph 20.7 mph N/A Rain Light Rain
6:15 AM 55.6 °F 51.6 °F 87% 30.07 in 10.0 mi South 10.4 mph 17.3 mph N/A   Light Drizzle
6:35 AM 55.8 °F 51.8 °F 87% 30.08 in 10.0 mi South 13.8 mph 17.3 mph N/A   Overcast
6:55 AM 55.9 °F 51.4 °F 85% 30.08 in 10.0 mi South 15.0 mph 23.0 mph N/A   Overcast
7:15 AM 55.9 °F 51.6 °F 85% 30.08 in 10.0 mi South 10.4 mph 19.6 mph N/A   Overcast
7:35 AM 55.8 °F 51.8 °F 87% 30.09 in 10.0 mi South 15.0 mph 19.6 mph N/A   Overcast
7:55 AM 55.8 °F 52.0 °F 87% 30.09 in 7.0 mi South 10.4 mph 17.3 mph N/A   Overcast
8:15 AM 55.4 °F 54.7 °F 97% 30.09 in 4.0 mi SSW 9.2 mph - N/A   Light Drizzle
8:35 AM 55.4 °F 55.0 °F 99% 30.09 in 7.0 mi South 10.4 mph - N/A   Overcast
8:55 AM 55.4 °F 55.4 °F 100% 30.09 in 4.0 mi South 10.4 mph 17.3 mph N/A   Overcast
9:15 AM 55.4 °F 55.4 °F 100% 30.09 in 3.0 mi South 11.5 mph 18.4 mph N/A   Overcast
9:35 AM 55.6 °F 55.6 °F 100% 30.10 in 3.0 mi South 13.8 mph 19.6 mph N/A   Overcast
9:55 AM 56.3 °F 56.3 °F 100% 30.10 in 3.0 mi South 13.8 mph - N/A   Overcast
10:15 AM 56.3 °F 56.3 °F 100% 30.10 in 3.0 mi South 11.5 mph 17.3 mph N/A   Overcast
10:35 AM 56.3 °F 56.3 °F 100% 30.10 in 2.5 mi South 10.4 mph - N/A   Overcast
10:55 AM 56.7 °F 56.7 °F 100% 30.10 in 3.0 mi South 10.4 mph 16.1 mph N/A   Overcast
11:15 AM 57.2 °F 57.2 °F 100% 30.09 in 3.0 mi South 12.7 mph 17.3 mph N/A   Overcast
11:35 AM 57.7 °F 57.7 °F 100% 30.08 in 4.0 mi South 12.7 mph 18.4 mph N/A   Overcast
11:55 AM 57.7 °F 57.7 °F 100% 30.08 in 4.0 mi South 10.4 mph 20.7 mph N/A   Overcast
12:15 PM 58.1 °F 58.1 °F 100% 30.06 in 7.0 mi South 11.5 mph 18.4 mph N/A   Overcast
12:35 PM 58.8 °F 58.8 °F 100% 30.06 in 7.0 mi South 10.4 mph - N/A   Overcast
12:55 PM 59.2 °F 59.0 °F 99% 30.04 in 7.0 mi SSW 17.3 mph - N/A   Overcast
1:15 PM 59.4 °F 59.0 °F 99% 30.03 in 10.0 mi South 12.7 mph 19.6 mph N/A   Overcast
1:35 PM 59.4 °F 59.0 °F 99% 30.03 in 7.0 mi South 11.5 mph - N/A   Overcast
1:55 PM 59.5 °F 59.2 °F 99% 30.03 in 7.0 mi South 12.7 mph 18.4 mph N/A   Overcast
2:15 PM 59.9 °F 59.2 °F 97% 30.02 in 7.0 mi South 10.4 mph - N/A   Overcast
2:35 PM 60.3 °F 59.5 °F 97% 30.03 in 10.0 mi South 11.5 mph 20.7 mph N/A   Overcast
2:55 PM 60.8 °F 59.9 °F 97% 30.03 in 10.0 mi South 10.4 mph - N/A   Overcast
3:15 PM 60.8 °F 59.9 °F 97% 30.03 in 10.0 mi South 10.4 mph - N/A   Overcast
3:35 PM 61.3 °F 59.9 °F 95% 30.03 in 10.0 mi South 9.2 mph - N/A   Overcast
3:55 PM 61.3 °F 60.1 °F 96% 30.03 in 7.0 mi South 9.2 mph - N/A   Overcast
4:15 PM 61.3 °F 60.4 °F 97% 30.02 in 10.0 mi South 6.9 mph - N/A   Overcast
4:35 PM 61.3 °F 60.4 °F 97% 30.02 in 10.0 mi South 10.4 mph 16.1 mph N/A   Overcast
5:15 PM 61.9 °F 60.1 °F 94% 30.03 in 10.0 mi South 8.1 mph - N/A   Overcast
5:35 PM 62.8 °F 60.4 °F 92% 30.03 in 10.0 mi South 10.4 mph - N/A   Overcast
5:55 PM 62.8 °F 60.4 °F 92% 30.03 in 10.0 mi South 6.9 mph - N/A   Overcast
6:15 PM 62.8 °F 60.6 °F 93% 30.03 in 10.0 mi South 6.9 mph - N/A   Overcast
6:35 PM 62.8 °F 60.4 °F 92% 30.03 in 10.0 mi SSE 6.9 mph - N/A   Overcast
6:55 PM 62.6 °F 60.3 °F 92% 30.03 in 10.0 mi SSE 5.8 mph - N/A   Overcast
7:15 PM 62.6 °F 60.1 °F 91% 30.02 in 10.0 mi SSE 6.9 mph - N/A   Overcast
7:35 PM 62.6 °F 60.1 °F 91% 30.03 in 10.0 mi SSE 6.9 mph - N/A   Overcast
7:55 PM 62.2 °F 59.9 °F 92% 30.01 in 10.0 mi SSE 6.9 mph - N/A   Overcast
8:15 PM 62.2 °F 58.8 °F 89% 30.02 in 10.0 mi SSE 5.8 mph - N/A   Overcast
8:35 PM 62.8 °F 58.1 °F 85% 30.03 in 10.0 mi SSE 5.8 mph - N/A   Overcast
8:55 PM 63.0 °F 57.4 °F 82% 30.03 in 10.0 mi SSE 5.8 mph - N/A   Overcast
9:15 PM 63.0 °F 56.8 °F 80% 30.03 in 10.0 mi SSE 8.1 mph - N/A   Mostly Cloudy
9:35 PM 62.2 °F 56.3 °F 81% 30.03 in 10.0 mi South 6.9 mph - N/A   Scattered Clouds
9:55 PM 61.9 °F 55.9 °F 81% 30.02 in 10.0 mi South 8.1 mph - N/A   Scattered Clouds
10:15 PM 61.0 °F 55.4 °F 82% 30.03 in 10.0 mi South 10.4 mph - N/A   Scattered Clouds
10:35 PM 60.6 °F 55.2 °F 82% 30.03 in 10.0 mi South 10.4 mph - N/A   Clear
10:55 PM 60.3 °F 55.0 °F 83% 30.03 in 10.0 mi South 9.2 mph - N/A   Clear
11:15 PM 60.3 °F 54.9 °F 82% 30.03 in 10.0 mi South 10.4 mph 17.3 mph N/A   Clear
11:35 PM 60.3 °F 54.9 °F 82% 30.03 in 10.0 mi South 9.2 mph 16.1 mph N/A   Scattered Clouds
11:55 PM 59.9 °F 54.7 °F 83% 30.03 in 10.0 mi South 8.1 mph - N/A   Scattered Clouds